DW8932 Weather Reports


time (UTC)temp
F
wind
direction
speed
knots
gust
knots
rain 1hr
in
rain 24hr
in
rain mn
in
humidity
%
barometer
mb
20260503224205 59 236 4.3 10.4 0.00 0.00 0.00 47 1012.2
20260503223704 58 213 2.6 7.0 0.00 0.00 0.00 47 1012.2
20260503223205 58 228 2.6 10.4 0.00 0.00 0.00 47 1012.2
20260503222704 58 245 6.1 13.9 0.00 0.00 0.00 47 1012.2
20260503222204 58 231 4.3 18.2 0.00 0.00 0.00 47 1012.4
20260503221704 59 230 4.3 12.2 0.00 0.00 0.00 46 1012.4
20260503220704 59 212 6.1 11.3 0.00 0.00 0.00 45 1012.4
20260503220205 59 246 5.2 15.6 0.00 0.00 0.00 45 1012.4
20260503215704 59 233 7.0 17.4 0.00 0.00 0.00 44 1012.2
20260503215204 59 248 5.2 13.0 0.00 0.00 0.00 45 1012.2
20260503214705 60 256 7.0 13.9 0.00 0.00 0.00 45 1012.2
20260503213704 59 232 3.5 10.4 0.00 0.00 0.00 46 1012.2
20260503213204 60 220 7.0 13.9 0.00 0.00 0.00 45 1012.2
20260503212204 59 238 4.3 13.0 0.00 0.00 0.00 46 1012.3
20260503211704 60 240 2.6 10.4 0.00 0.00 0.00 46 1012.3
20260503211205 59 252 5.2 12.2 0.00 0.00 0.00 46 1012.4
20260503210205 59 251 7.0 18.2 0.00 0.00 0.00 45 1012.4
20260503205705 60 251 3.5 12.2 0.00 0.00 0.00 45 1012.4
20260503205204 60 241 7.8 17.4 0.00 0.00 0.00 44 1012.4
20260503204705 60 244 8.7 20.9 0.00 0.00 0.00 43 1012.4
20260503204204 60 218 6.1 18.2 0.00 0.00 0.00 43 1012.4
20260503203704 61 255 7.8 13.9 0.00 0.00 0.00 43 1012.4
20260503202704 60 202 1.7 15.6 0.00 0.00 0.00 46 1012.4
20260503202204 60 227 5.2 15.6 0.00 0.00 0.00 44 1012.4
20260503201705 61 232 7.0 15.6 0.00 0.00 0.00 42 1012.9
20260503201205 62 232 6.1 10.4 0.00 0.00 0.00 42 1012.9
20260503200705 61 207 7.0 18.2 0.00 0.00 0.00 42 1012.9
20260503200205 62 234 7.0 18.2 0.00 0.00 0.00 42 1012.9
20260503195205 62 224 6.1 10.4 0.00 0.00 0.00 44 1012.9
20260503194704 61 264 6.1 11.3 0.00 0.00 0.00 45 1013.1
20260503194205 60 221 5.2 12.2 0.00 0.00 0.00 45 1013.0
20260503193704 60 223 7.0 17.4 0.00 0.00 0.00 45 1013.5
20260503192704 61 270 5.2 17.4 0.00 0.00 0.00 45 1013.5
20260503192205 61 278 8.7 20.9 0.00 0.00 0.00 45 1013.5
20260503191704 61 239 7.0 13.9 0.00 0.00 0.00 44 1013.5
20260503191205 60 260 6.1 12.2 0.00 0.00 0.00 46 1013.7
20260503190204 61 249 5.2 12.2 0.00 0.00 0.00 45 1013.7
20260503185704 62 224 4.3 13.0 0.00 0.00 0.00 43 1013.7
20260503185205 62 228 5.2 13.9 0.00 0.00 0.00 46 1013.7
20260503184205 62 210 4.3 15.6 0.00 0.00 0.00 45 1014.0
20260503183704 61 211 6.1 17.4 0.00 0.00 0.00 45 1014.0
20260503182204 61 244 6.1 18.2 0.00 0.00 0.00 45 1014.4
20260503181205 60 253 3.5 10.4 0.00 0.00 0.00 47 1014.4
20260503180204 62 228 6.1 13.9 0.00 0.00 0.00 43 1014.4
20260503175704 61 223 6.1 17.4 0.00 0.01 0.00 45 1014.4
20260503175205 61 268 2.6 11.3 0.00 0.01 0.00 46 1014.4
20260503174704 61 242 1.7 11.3 0.00 0.01 0.00 48 1014.5
20260503173705 60 261 6.1 11.3 0.00 0.01 0.00 48 1015.1
20260503173204 59 246 4.3 11.3 0.00 0.01 0.00 46 1015.1
20260503172705 60 204 4.3 19.1 0.00 0.01 0.00 46 1015.1
20260503172205 60 234 6.1 13.0 0.00 0.01 0.00 50 1015.1
20260503170204 60 270 5.2 15.6 0.00 0.01 0.00 51 1015.1
20260503150705 55 253 4.3 13.9 0.00 0.01 0.00 51 1015.9
20260503130706 45 220 4.3 8.7 0.00 0.01 0.00 61 1016.7
20260503130206 44 225 1.7 7.8 0.00 0.01 0.00 62 1016.8
20260503120205 37 182 0.9 5.2 0.00 0.04 0.00 80 1016.7
20260503110704 34 204 0.0 0.0 0.00 0.04 0.00 83 1016.3
20260503110204 34 213 0.0 0.0 0.00 0.04 0.00 83 1016.3
20260503100205 34 204 0.0 0.0 0.00 0.05 0.00 84 1015.9
20260503090205 34 182 0.0 0.0 0.00 0.06 0.00 87 1016.1
20260503081204 34 184 0.0 0.0 0.00 0.06 0.00 86 1016.2
20260503080704 34 201 0.0 0.0 0.00 0.06 0.00 86 1016.2
20260503072204 35 201 0.0 0.0 0.00 0.06 0.00 85 1016.2
20260503071704 35 208 0.0 0.0 0.00 0.06 0.00 85 1016.2
20260503070705 35 219 0.0 0.0 0.00 0.06 0.00 85 1016.1
20260503070205 35 219 0.0 0.0 0.00 0.06 0.00 85 1016.1
20260503054705 36 194 0.0 0.0 0.00 0.10 0.00 80 1016.6
20260503053704 36 194 0.0 0.0 0.00 0.10 0.00 79 1016.6
20260503052704 37 192 0.0 0.0 0.00 0.10 0.00 78 1016.6
20260503052204 37 207 0.0 0.0 0.00 0.10 0.00 78 1016.6
20260503051705 37 215 0.0 0.0 0.00 0.10 0.00 78 1016.6
20260503051204 37 219 0.0 0.0 0.00 0.10 0.00 78 1016.6
20260503050204 38 219 0.0 0.0 0.00 0.10 0.00 77 1016.7
20260503045205 38 219 0.0 0.0 0.00 0.11 0.00 77 1016.7
20260503044705 39 219 0.0 0.0 0.00 0.11 0.00 77 1016.7
20260503044204 39 219 0.0 0.0 0.00 0.11 0.00 77 1016.7
20260503043704 39 221 0.0 0.0 0.00 0.11 0.00 77 1016.7
20260503043204 39 221 0.0 0.0 0.00 0.11 0.00 77 1016.7
20260503042704 39 219 0.0 0.0 0.00 0.12 0.00 77 1016.7
20260503042204 39 234 0.0 0.0 0.00 0.12 0.00 77 1016.7
20260503041704 40 205 0.0 0.0 0.00 0.12 0.00 76 1016.7
20260503040705 40 219 0.0 0.0 0.00 0.12 0.00 76 1016.8
20260503040204 40 218 0.0 0.0 0.00 0.13 0.00 76 1016.8
20260503035705 40 166 0.0 0.0 0.00 0.13 0.13 76 1016.9
20260503035205 40 242 0.0 0.0 0.00 0.14 0.13 76 1016.9
20260503033705 40 196 0.0 0.0 0.00 0.15 0.13 75 1016.9
20260503032704 40 193 0.0 0.0 0.00 0.16 0.13 74 1016.9
20260503032205 40 199 0.0 0.0 0.00 0.16 0.13 74 1017.1
20260503031704 40 192 0.0 0.0 0.00 0.17 0.13 73 1017.1
20260503031204 40 198 0.0 0.0 0.00 0.17 0.13 73 1017.1
20260503030704 40 198 0.0 0.0 0.00 0.17 0.13 73 1017.1
20260503030204 40 198 0.0 0.0 0.00 0.17 0.13 73 1017.1
20260503025205 40 199 0.0 0.0 0.00 0.17 0.13 72 1017.1
20260503024705 40 199 0.0 0.0 0.00 0.17 0.13 72 1017.1
20260503024205 40 208 0.0 0.0 0.00 0.17 0.13 72 1017.1
20260503023705 40 221 0.0 0.0 0.00 0.17 0.13 71 1017.1
20260503023205 40 221 0.0 0.0 0.00 0.17 0.13 70 1017.1
20260503022704 41 223 0.0 0.0 0.00 0.17 0.13 70 1017.1
20260503021704 41 223 0.0 0.0 0.00 0.17 0.13 69 1017.1
20260503021204 41 223 0.0 0.0 0.00 0.17 0.13 69 1017.1
20260503020704 41 224 0.0 0.0 0.00 0.17 0.13 69 1017.1
20260503020204 41 224 0.0 0.0 0.00 0.17 0.13 69 1017.1
20260503015704 41 224 0.0 0.0 0.00 0.17 0.13 69 1017.1
20260503015204 41 227 0.0 0.0 0.00 0.17 0.13 68 1017.1
20260503014704 41 313 0.0 0.0 0.00 0.17 0.13 68 1017.1
20260503014205 41 314 0.0 0.0 0.00 0.17 0.13 68 1017.1
20260503012705 41 314 0.0 0.0 0.00 0.17 0.13 67 1016.9
20260503011704 42 314 0.0 0.0 0.00 0.17 0.13 66 1016.9
20260503011205 42 314 0.0 0.0 0.00 0.17 0.13 66 1016.9
20260503010705 42 314 0.0 0.0 0.00 0.17 0.13 65 1016.9
20260503010205 42 314 0.0 0.0 0.00 0.17 0.13 65 1016.9
20260503005705 42 314 0.0 0.0 0.00 0.17 0.13 65 1016.9
20260503004705 42 314 0.0 0.0 0.00 0.17 0.13 65 1016.9
20260503004204 42 314 0.0 0.0 0.00 0.17 0.13 64 1016.9
20260503003705 42 314 0.0 0.0 0.00 0.17 0.13 64 1016.9
20260503003205 42 314 0.0 0.0 0.00 0.17 0.13 64 1017.0
20260503002705 43 314 0.0 0.0 0.00 0.17 0.13 64 1016.9
20260503002205 43 314 0.0 0.0 0.00 0.17 0.13 64 1016.9
20260503001705 43 314 0.0 0.0 0.00 0.17 0.13 63 1016.9
20260503001204 43 313 0.0 0.0 0.00 0.17 0.13 63 1016.9
20260503000204 43 312 0.0 0.0 0.00 0.17 0.13 62 1016.9
20260502235704 43 311 0.0 0.0 0.00 0.17 0.13 61 1016.9
20260502235205 43 323 0.0 0.0 0.00 0.17 0.13 61 1016.9
20260502234204 43 336 0.0 0.0 0.00 0.17 0.13 61 1016.9
20260502233204 43 298 0.0 0.0 0.00 0.17 0.13 62 1016.9
20260502232705 43 315 0.0 0.0 0.00 0.17 0.13 62 1016.9
20260502231704 44 309 0.0 0.0 0.00 0.17 0.13 61 1016.9
20260502230205 44 282 0.0 0.9 0.00 0.17 0.13 59 1016.9
20260502225704 44 297 0.9 6.1 0.00 0.17 0.13 58 1016.9